Regional Weather Roundup
Issued by NWS State College, PA

Home | Current Version | Previous Version | Text Only | Print | Product List | Glossary On
Versions: 1 2 3 4 5 6 7 8 9 10 11 12 13 14 15 16 17 18 19 20 21 22 23 24 25 26 27 28 29 30 31 32 33 34 35 36 37 38 39 40 41 42 43 44 45 46 47 48 49 50
000
ASUS41 KCTP 250610
RWRCTP

REGIONAL WEATHER ROUNDUP
NATIONAL WEATHER SERVICE STATE COLLEGE PA
200 AM EDT FRI APR 25 2014

Note: "fair" indicates few or no clouds below 12,000 feet with no
significant weather and/or obstructions to visibility.

* = STATION THAT DOES NOT REPORT PRECIPITATION /E.G. RAIN...SNOW...ETC/
    THUNDER OR FOG.

PAZ002>004-007>009-013>016-020>023-029>032-250700-
WESTERN PENNSYLVANIA

CITY           SKY/WX    TMP DP  RH WIND       PRES   REMARKS
ERIE           CLOUDY    50  18  28 E7        29.90F
MEADVILLE      NOT AVBL
FRANKLIN*      MOCLDY    46  18  31 SE10      29.93F
NEW CASTLE     FAIR      48  23  37 E6        29.89F
BEAVER COUNTY  NOT AVBL
BUTLER*        FAIR      48  21  34 E9        29.92F
PITTSBURGH INT CLOUDY    49  22  34 E7        29.89F
PITTSBURGH     FAIR      51  19  28 E7        29.89F
INDIANA*       MOCLDY    52  19  28 SE9G16    29.93F
LATROBE        MOCLDY    55  19  24 E9        29.91F
WASHINGTON CO* FAIR      46  23  39 NE3       29.90F
$$

PAZ004>006-010>012-017>019-024>028-033>037-041-042-045-046-049>053-250700-
CENTRAL PENNSYLVANIA

CITY           SKY/WX    TMP DP  RH WIND       PRES   REMARKS
BRADFORD       CLOUDY    38  20  48 SE6       29.96F
DUBOIS         CLOUDY    46  17  31 E10       29.93F
CLEARFIELD     CLOUDY    43  19  38 NE9       29.98F
JOHNSTOWN      CLOUDY    49  16  26 SE9       29.94F
ALTOONA        FAIR      49  21  33 E3        29.98F
STATE COLLEGE  FAIR      47   8  21 NE6       30.00F
WILLIAMSPORT   FAIR      39  25  57 CALM      30.03F
SELINSGROVE    FAIR      34  28  79 CALM      30.04S
FT INDIANTOWN  FAIR      38  27  63 SE2       30.04R
CAPITAL CITY   FAIR      42  29  59 CALM      30.02F
HARRISBURG     MOCLDY    44  28  53 SE5       30.02S
YORK           FAIR      38  30  73 CALM      30.02F
$$

PAZ038>040-043-044-047-048-054-055-060>062-067>071-250700-
EASTERN PENNSYLVANIA

CITY           SKY/WX    TMP DP  RH WIND       PRES   REMARKS
SCRANTON       FAIR      39  18  42 VRB5      30.03F
MOUNT POCONO   FAIR      39  14  36 N10       30.00F
ALLENTOWN      FAIR      41  18  39 N6        30.03F
QUAKERTOWN*    FAIR      45  16  31 N7        30.03F
READING        FAIR      44  22  41 CALM      30.03S
LANCASTER      FAIR      43  22  43 CALM      30.03S
COATESVILLE    NOT AVBL
POTTSTOWN      FAIR      40  20  44 CALM      30.04F
BLUE BELL      FAIR      46  16  29 CALM      30.03S
DOYLESTOWN     FAIR      43  16  33 N7        30.02S
WILLOW GROVE   NOT AVBL
NORTH PHILA    FAIR      44  16  32 NE7       30.04F
PHILADELPHIA   FAIR      50  12  21 N10       30.03F
$$



USA.gov is the U.S. government's official web portal to all federal, state and local government web resources and services.